User: anonymous   Login
Location: Wildlife_Club
(35.6000°N, 81.4330°W)
Time: 05:37:33
(UTC-04:00)
Language:

Cosmos 1782 - Orbit

View from above orbital plane
View from above orbital plane
View from above satellite
View from above satellite

Ground track
Ground track

The orbit data is extracted from the following two-line orbital elements,

1 16986U 86074A   14294.11863925  .00004830  00000-0  35260-3 0  8814
2 16986 082.5082 343.4627 0013089 058.3618 301.8883 15.03408558524896
Epoch (UTC): 21 October 2014 02:50:50
Eccentricity: 0.0013089
inclination: 82.5082°
perigee height: 547 km
apogee height: 565 km
right ascension of ascending node: 343.4627°
argument of perigee: 58.3618°
revolutions per day: 15.03408558
mean anomaly at epoch: 301.8883°
orbit number at epoch: 52489

The dashed part of the orbit path shows where the satellite is in the earth's shadow,  

DLR